This is the latest recevied weather packets stored in our database for station/object KE8DAF-15. If no packets are shown the sender has not sent any weather packets the latest 10 day(s).
| Time | Temp. | Humidity | Pressure | Rain* | Wind** | Luminosity | Snow |
|---|---|---|---|---|---|---|---|
| 1787939569 | 21.11° C | 72% | 1007 hPa | 0 mm | - | - | - |
| 1787939269 | 20.56° C | 73% | 1007.1 hPa | 0 mm | - | - | - |
| 1787938969 | 20.56° C | 74% | 1007.1 hPa | 0 mm | - | - | - |
| 1787938669 | 20.56° C | 72% | 1007.1 hPa | 0 mm | - | - | - |
| 1787938369 | 20.56° C | 74% | 1007.1 hPa | 0 mm | - | - | - |
| 1787938069 | 20° C | 74% | 1007.2 hPa | 0 mm | - | - | - |
| 1787937769 | 20° C | 70% | 1007.2 hPa | 0 mm | - | - | - |
| 1787937469 | 20° C | 64% | 1007.3 hPa | 0 mm | - | - | - |
| 1787937169 | 20° C | 64% | 1007.3 hPa | 0 mm | - | - | - |
| 1787936869 | 20.56° C | 63% | 1007.4 hPa | 0 mm | - | - | - |
| 1787936569 | 20.56° C | 64% | 1007.4 hPa | 0 mm | - | - | - |
| 1787936269 | 20.56° C | 63% | 1007.4 hPa | 0 mm | - | - | - |
| 1787935969 | 21.11° C | 59% | 1007.5 hPa | 0 mm | - | - | - |
| 1787935669 | 21.67° C | 60% | 1007.5 hPa | 0 mm | - | - | - |
| 1787935369 | 21.11° C | 59% | 1007.5 hPa | 0 mm | - | - | - |
| 1787935071 | 21.11° C | 62% | 1007.5 hPa | 0 mm | - | - | - |
| 1787934769 | 21.11° C | 58% | 1007.5 hPa | 0 mm | - | - | - |
| 1787934469 | 20.56° C | 61% | 1007.5 hPa | 0 mm | - | - | - |
| 1787934169 | 20.56° C | 66% | 1007.5 hPa | 0 mm | - | - | - |
| 1787933869 | 20.56° C | 62% | 1007.6 hPa | 0 mm | - | - | - |
| 1787933569 | 20.56° C | 62% | 1007.6 hPa | 0 mm | - | - | - |
| 1787933269 | 20.56° C | 66% | 1007.5 hPa | 0 mm | - | - | - |
| 1787932969 | 20.56° C | 68% | 1007.5 hPa | 0 mm | - | - | - |
| 1787932669 | 20° C | 69% | 1007.5 hPa | 0 mm | - | - | - |
| 1787932369 | 20° C | 68% | 1007.6 hPa | 0 mm | - | - | - |
* Rain latest hour (hover to see other rain measurements)
** Current wind speed in m/s (hover to see current wind gust speed)